Orbital Elements at Epoch 2459200.5 (2020-Dec-17.0) TDB
Reference: JPL 18 (heliocentric ecliptic J2000)
Element | Value | Uncertainty (1-sigma) | Units |
e | .09718685824162383 | 4.5323e-08 | |
a | 2.339023312282468 | 1.3993e-08 | au |
q | 2.111700985207819 | 1.0621e-07 | au |
i | 7.443238164454576 | 4.5603e-06 | deg |
node | 27.08712250191644 | 3.7399e-05 | deg |
peri | 247.6555990291839 | 4.9272e-05 | deg |
M | 59.46572112086181 | 2.8218e-05 | deg |
tp | 2458984.668692665089 (2020-May-15.16869267) | 0.00010335 | TDB |
period | 1306.622860633393 3.58 | 1.1725e-05 3.21e-08 | d yr |
n | .275519440877904 | 2.4724e-09 | deg/d |
Q | 2.566345639357118 | 1.5353e-08 | au |
|
| | Orbit Determination Parameters
Additional Information
|